www.pogodaiklimat.ru

Погода и климат >> Архив погоды >> Россия >> Камчатский край >> Петропавловск-Камчатский


АРХИВ ПОГОДЫ в Петропавловск-Камчатском

Время (UTC), дата Ветер
(напр.,м/с)
 
Видим.   Явления Облачность Т
(С)
Тd
(С)
f
(%)
Тe
(С)
Тes
(С)
Комфортность P
(гПа)
Po
(гПа)
Тmin
(С)
Tmax
(С)
R
(мм)
R24
(мм)
S
(см)
12 15.01 С 5 50 км 3/3 600 м
[Sc]
-7.5 -14.3 58 -15 -15 по сезону 1014.2 1011.1
15 15.01 С 5 50 км ясно -8.5 -15.4 57 -16 -16 по сезону 1014.9 1011.8
18 15.01 С 4 50 км ясно -10.6 -14.2 75 -18 -18 прохладно 1015.7 1012.5
21 15.01 СЗ 5 50 км 1/0
[Ci fib]
-12.2 -14.6 82 -20 -20 холодно 1016.1 1012.9 -12.2 89
00 16.01 СЗ 2 50 км 4/0
[Ci fib]
-12.7 -16.0 76 -17 -16 прохладно 1016.8 1013.6 -12.8
03 16.01 С 1 50 км 6/1 600 м
[Sc Ac trans Ci fib]
-10.1 -16.2 61 -12 -11 по сезону 1014.8 1011.6
06 16.01 С 1 50 км 5/0
[Ci fib]
-10.2 -15.8 63 -12 -12 по сезону 1013.7 1010.5
09 16.01 СЗ 3 10 км слаб. ливневой снег 10/8 600 м
[Cb cap Ac trans]
-9.6 -15.6 62 -15 -15 по сезону 1012.0 1008.9 -9.6 0.0
12 16.01 СЗ 1 2000 м слаб. ливневой снег 10/10 600 м
[Cb cap]
-10.0 -12.1 85 -12 -12 по сезону 1009.7 1006.6
15 16.01 СВ 6-12
{14}
2000 м слаб. ливневой снег {метель} 10/10 600 м
[Cb cap]
-4.1 -6.0 87 -12 -12 по сезону 1006.1 1003.1
18 16.01 В 7-18
{18}
4000 м слаб. ливневой снег {метель} 10/10 600 м
[Cb cap]
-2.8 -6.0 79 -11 -11 по сезону 1000.9 997.9
21 16.01 В 4-13
{18}
500 м ливневой снег {метель} 10/10 600 м
[Cb cap]
-2.6 -4.1 89 -9 -9 по сезону 997.0 994.0 -11.2 10 101
00 17.01 СВ 9-21
{27}
200 м ливневой снег {метель} 10/10 600 м
[Cb cap]
-1.7 -3.4 88 -10 -10 по сезону 989.3 986.3
03 17.01 В 4-12
{26}
200 м ливневой снег {метель} 10/10 600 м
[Cb cap]
-0.6 -1.6 93 -6 -6 тепло 984.9 981.9
06 17.01 С 8-12
{14}
10 км слаб. ливневой снег {метель} 10/10 600 м
[Cb cap]
-3.2 -4.3 92 -12 -12 по сезону 988.4 985.4
09 17.01 С 7
{13}
20 км позёмок {ливн. осадки} 9/5 600 м
[Sc diur, vesp Ac trans Ci fib]
-4.5 -8.9 71 -12 -12 по сезону 992.2 989.2 -0.2 21
12 17.01 С 8-11
{13}
20 км позёмок {ливн. осадки} 4/3 600 м
[Sc Ac trans Ci fib]
-6.2 -12.4 61 -15 -15 по сезону 994.6 991.5
15 17.01 С 6
{11}
50 км {метель} ясно -7.9 -14.0 62 -16 -16 по сезону 996.1 993.0
18 17.01 С 2 50 км {метель} ясно -9.1 -15.2 61 -13 -13 по сезону 997.0 993.9
21 17.01 ЮВ 1 20 км 9/8 600 м
[Sc Ci fib]
-9.9 -13.1 77 -12 -12 по сезону 997.0 993.9 -10.6 121
00 18.01 СВ 1 20 км 10/5 600 м
[Sc Ac trans Ci fib]
-9.6 -13.7 72 -12 -11 по сезону 996.0 992.9 -10.7
03 18.01 ЮВ 4 10 км слаб. ливневой снег 10/10 600 м
[Cb cap]
-3.5 -9.4 64 -9 -9 по сезону 993.1 990.0
06 18.01 В 7-15
{20}
4000 м слаб. ливневой снег {метель} 10/10 600 м
[Cb cap]
-3.5 -9.9 61 -11 -11 по сезону 991.9 988.9
09 18.01 В 5-12
{19}
10 км слаб. ливневой снег {метель} 10/10 600 м
[Cb cap]
-2.3 -7.6 67 -9 -9 по сезону 990.8 987.8 -2.2 0.8
12 18.01 В 6-17
{18}
10 км слаб. ливневой снег {метель} 10/10 600 м
[Cb cap]
-2.0 -7.7 65 -9 -9 по сезону 991.0 988.0
15 18.01 В 9-21
{21}
10 км слаб. ливневой снег {метель} 10/10 600 м
[Cb cap]
-2.5 -7.4 69 -11 -11 по сезону 989.7 986.7
18 18.01 СВ 11-21
{24}
10 км слаб. ливневой снег {метель} 10/10 600 м
[Cb cap]
-2.1 -9.1 59 -11 -11 по сезону 987.1 984.1
21 18.01 В 9-19
{29}
10 км слаб. ливневой снег {метель} 10/10 600 м
[Cb cap]
-1.7 -8.9 58 -10 -10 по сезону 988.6 985.6 -2.7 1 115
00 19.01 СВ 6-16
{23}
20 км позёмок {ливн. осадки} 10/10 600 м
[Cb calv]
0.0 -8.8 52 -6 -6 тепло 988.6 985.7
03 19.01 СВ 6-12
{19}
20 км позёмок 10/10 600 м
[Cb calv]
+1.8 -7.8 49 -4 -4 тепло 985.0 982.0
06 19.01 СВ 7-14
{24}
10 км позёмок 10/10 600 м
[Cb calv]
+0.6 -5.5 64 -6 -6 тепло 984.1 981.2
09 19.01 СВ 4-12
{17}
10 км слаб. ливневой снег {метель} 10/10 600 м
[Cb cap]
+1.3 -4.8 64 -3 -3 тепло 984.6 981.6 +1.9 0.0
12 19.01 В 2
{12}
20 км {ливн. осадки, метель} 10/10 600 м
[Sc diur, vesp]
+0.8 -4.4 68 -2 -2 тепло 984.5 981.6
15 19.01 СВ 5-12
{12}
10 км в посл. час ливневой снег 10/10 600 м
[Sc diur, vesp]
+2.0 -5.1 59 -3 -3 тепло 983.7 980.8
18 19.01 З 2
{13}
10 км {ливн. осадки} 10/10 600 м
[Sc]
+0.6 -3.8 72 -3 -3 тепло 982.8 979.9
21 19.01 СВ 3-13
{13}
10 км слаб. ливневой снег 10/10 600 м
[Cb cap]
+2.7 -2.6 68 -1 -1 тепло 983.8 980.9 -1.7 0.3 114
00 20.01 С 2
{15}
10 км слаб. ливневой снег 10/10 600 м
[Cb cap]
+2.4 -2.4 71 -1 -1 тепло 984.5 981.6
03 20.01 СВ 6-14
{15}
20 км в посл. час ливневой снег 9/5 600 м
[Sc diur, vesp Ac trans Ci fib]
+3.4 -5.0 54 -2 -1 тепло 983.8 980.8
06 20.01 СВ 4-12
{16}
20 км {ливн. осадки} 9/4 600 м
[Sc Ac trans Ci fib]
+3.1 -7.5 46 -1 -1 тепло 982.6 979.7
09 20.01 С 7-12
{12}
10 км слаб. ливневой снег 10/10 600 м
[Cb cap]
+1.6 -6.7 54 -4 -4 тепло 981.1 978.2 +1.6 0.0
12 20.01 С 9-13
{13}
10 км {ливн. осадки} 10/10 600 м
[Sc diur, vesp]
+2.1 -7.2 50 -4 -4 тепло 977.8 974.8
15 20.01 В 7-17
{25}
2000 м ливневой снег 10/10 300 м
[Cb cap]
+0.7 -0.7 90 978.5 975.6
18 20.01 ЮВ 13-28
{28}
4000 м слаб. ливневой снег {метель} 10/10 600 м
[Cb cap]
-0.7 -1.9 92 -10 -10 по сезону 987.2 984.2
21 20.01 ЮВ 6-15
{28}
2000 м ливневой снег {метель} 10/10 600 м
[Cb cap]
-0.2 -1.4 92 -7 -7 тепло 993.0 990.0 -1.2 5 117
00 21.01 ЮВ 5-12
{15}
10 км в посл. час ливневой снег {метель} 9/9 600 м
[Sc]
+1.6 -1.0 83 -4 -4 тепло 995.0 992.0
03 21.01 В 6-13
{15}
4000 м слаб. ливневой снег 10/10 600 м
[Cb cap]
+1.1 -1.5 83 -5 -5 тепло 995.3 992.4
06 21.01 В 4
{14}
10 км осадки на расстоянии {ливн. осадки} 9/3 600 м
[Cb cap Ac trans Ci fib]
+1.1 -5.8 60 -4 -4 тепло 995.0 992.0
09 21.01 С 4
{11}
20 км 10/10 600 м
[Sc]
+0.1 -5.9 64 -5 -5 тепло 994.5 991.5 +1.6 6
12 21.01 С 2 4000 м слаб. ливневой снег 10/10 600 м
[Cb cap]
-1.3 -3.8 83 -5 -5 тепло 992.8 989.8
15 21.01 В 4-12
{15}
2000 м ливневой снег 10/10 600 м
[Cb cap]
+1.4 -1.5 81 -4 -4 тепло 992.0 989.1
18 21.01 В 4-12
{19}
2000 м ливневой снег 10/10 600 м
[Cb cap]
+1.1 -1.2 85 -4 -4 тепло 992.8 989.9
21 21.01 ЮВ 4-12
{16}
500 м ливневой снег 10/10 600 м
[Cb cap]
+0.1 -0.7 94 -6 -6 тепло 995.3 992.3 -2.1 16 131
00 22.01 В 5-14
{18}
2000 м слаб. ливневой снег 10/10 600 м
[Cb cap]
+0.6 -0.6 92 -5 -5 тепло 997.4 994.4
03 22.01 В 4-12
{16}
10 км слаб. ливневой снег 10/10 600 м
[Cb cap]
+1.2 -2.3 77 -4 -4 тепло 998.7 995.8
06 22.01 В 5-12
{17}
4000 м слаб. ливневой снег 10/10 600 м
[Cb cap]
+0.7 -3.9 71 -5 -5 тепло 1000.8 997.8
09 22.01 СВ 4-12
{19}
20 км слаб. ливневой снег {метель} 10/10 600 м
[Cb cap]
+0.4 -6.3 61 -4 -4 тепло 1002.7 999.7 +1.4 9

 

Местоположение метеостанции Петропавловск-Камчатский (Камчатский край, Россия): широта 52.87 долгота 158.60 высота над уровнем моря 24 м.

В архиве по умолчанию представлена погода в Петропавловск-Камчатском за последнюю неделю. Архивные данные за месяц целиком и за предыдущие месяцы, начиная с января 2011 года, Вы можете получить, выбрав интересующий диапазон дат из раскрывающегося списка и нажав кнопку "Ввод!".


*Определитесь, кто Вы:
робот инопланетянин человек

Внимание! Время в таблицах - всемирное. Для получения местного времени необходимо прибавить поправку, которая равна 12 ч.

Смотрите также архив погоды в соседних городах и на ближайших метеорологических станциях:

Погода в Петропавловском Маяке (Камчатский край, Россия) (7 км)
Погода в Петропавловск-Камч. 2 (Камчатский край, Россия) (24 км)
Погода в Сосновке (Камчатский край, Россия) (31 км)
Погода в Начиках (Камчатский край, Россия) (66 км)
Погода в Водопадной (Камчатский край, Россия) (124 км)
Погода в Пущино (Камчатский край, Россия) (151 км)
Погода в Большерецке (Камчатский край, Россия) (155 км)
Погода в Семячике (Камчатский край, Россия) (163 км)
Погода в Мильково (Камчатский край, Россия) (201 км)
Погода в Озерной (Камчатский край, Россия) (215 км)

Пояснения к столбцам:

Ветер - указаны скорость ветра в м/с - средняя за 10 мин, порывы в срок и между сроками (в фигурных скобках) и направление, откуда дует ветер: С - северный, СВ - северо-восточный, В - восточный, ЮВ - юго-восточный, Ю - южный, ЮЗ - юго-западный, З - западный, СЗ - северо-западный.
Видимость - горизонтальная дальность видимости в метрах или километрах. При видимости от 1 до 10 км при отсутствии осадков обычно наблюдается дымка, при ухудшении видимости до 1 км и менее - туман. В сухую погоду видимость может ухудшаться дымом, пылью или мглою.
Явления - указаны атмосферные явления, наблюдавшиеся в срок или в последний час перед сроком; фигурными скобками обозначены явления, наблюдавшиеся между сроками (за 1-3 часа до срока); квадратными скобками обозначены град или гололедные отложения с указанием их диаметра в мм.
Облачность - указаны через наклонную черту общая и нижняя облачность в баллах и высота нижней границы облаков в метрах; квадратными скобками обозначены формы облаков: Ci - перистые, Cs - перисто-слоистые, Cc - перисто-кучевые, Ac - высококучевые, As - высокослоистые, Sc - слоисто-кучевые, Ns - слоисто-дождевые, Cu - кучевые, Cb - кучево-дождевые. Подробнее классификацию облаков см. в Атласе облаков (PDF).
T - Температура воздуха - температура, измеренная на высоте 2 м над землей.
Td - Температура точки росы - температура, при понижении до которой содержащийся в воздухе водяной пар достигнет насыщения.
f - Относительная влажность воздуха - влажноcть воздуха, измеренная на высоте 2 м над землей.
Te - Эффективная температура - температура, которую ощущает одетый по сезону человек в тени. Характеристика душности погоды. При расчете учитывается влияние влажности воздуха и скорости ветра на теплоощущения человека.
Tes - Эффективная температура на солнце - температура, которую ощущает человек, с поправкой на солнечный нагрев. Характеристика знойности погоды. Зависит от высоты солнца над горизонтом, облачности и скорости ветра. Ночью, в пасмурную погоду, а также при ветре 12 м/с и более поправка равна нулю.
P - Атмосферное давление - приведенное к уровню моря атмосферное давление.
Po - Атмосферное давление - измеренное на уровне метеостанции атмосферное давление.
Tmin - Минимальная температура - минимум температуры воздуха на высоте 2 м над землей.
Tmax - Максимальная температура - максимум температуры воздуха на высоте 2 м над землей.
R - Количество осадков - Количество выпавших осадков за период времени, мм. При наведении курсора мыши на число - период времени, за который выпало указанное количество осадков.
R24 - Количество осадков - Количество выпавших осадков за 24 часа, мм.
S - Снежный покров - Высота снежного покрова, см. При наведении курсора мыши на число - состояние снежного покрова и степень покрытия местности в баллах.